DAL2194 KMYR-KLGA

Flight info

Callsign DAL2194
Flight time N/A
Altitude 33000
Route CRE CHKLZ ZORDO Q107 HURTS PROUD2
Aircraft B738/M-SDE2E3FGHIRWXY/LB1

Departure

Time 2026-04-15 21:58
Airport Myrtle Beach International Airport (KMYR)

Arrival

Time N/A
Airport LaGuardia Airport (KLGA)
Time Latitude Longitude Altitude Speed Heading
2026-04-15 21:45 33.68215 -78.92416 31 ft 0 kts 66°
2026-04-15 21:50 33.68209 -78.92432 31 ft 4 kts 66°
2026-04-15 21:51 33.68203 -78.92449 31 ft 0 kts 66°
2026-04-15 21:51 33.68202 -78.92451 31 ft 4 kts 66°
2026-04-15 21:52 33.68189 -78.92487 31 ft 5 kts 65°
2026-04-15 21:52 33.68176 -78.92519 29 ft 3 kts 56°
2026-04-15 21:52 33.68167 -78.92532 29 ft 2 kts 33°
2026-04-15 21:52 33.68157 -78.92537 31 ft 2 kts
2026-04-15 21:53 33.68146 -78.92537 30 ft 2 kts 356°
2026-04-15 21:53 33.68143 -78.92537 30 ft 0 kts 355°
2026-04-15 21:54 33.68181 -78.92543 31 ft 12 kts 352°
2026-04-15 21:54 33.68282 -78.92562 31 ft 17 kts 349°
2026-04-15 21:55 33.68413 -78.92592 31 ft 21 kts 349°
2026-04-15 21:55 33.68528 -78.92620 31 ft 15 kts 349°
2026-04-15 21:55 33.68647 -78.92657 31 ft 18 kts 331°
2026-04-15 21:55 33.68668 -78.92779 31 ft 16 kts 278°
2026-04-15 21:56 33.68756 -78.92831 32 ft 16 kts 349°
2026-04-15 21:56 33.68878 -78.92859 32 ft 20 kts 351°
2026-04-15 21:56 33.69033 -78.92855 32 ft 25 kts 354°
2026-04-15 21:56 33.69190 -78.92893 32 ft 14 kts 348°
2026-04-15 21:57 33.69269 -78.92929 32 ft 11 kts 301°
2026-04-15 21:57 33.69264 -78.93016 32 ft 10 kts 257°
2026-04-15 21:57 33.69247 -78.93101 30 ft 11 kts 253°
2026-04-15 21:57 33.69181 -78.93132 33 ft 14 kts 167°
2026-04-15 21:58 33.68922 -78.93068 34 ft 70 kts 168°
2026-04-15 21:58 33.68243 -78.92899 30 ft 127 kts 168°
2026-04-15 21:58 33.67296 -78.92672 300 ft 146 kts 169°
2026-04-15 21:58 33.66292 -78.92388 870 ft 155 kts 171°
2026-04-15 21:59 33.65181 -78.92051 1332 ft 173 kts 165°
2026-04-15 21:59 33.64101 -78.91264 1787 ft 194 kts 141°
2026-04-15 21:59 33.63392 -78.89745 1955 ft 228 kts 100°
2026-04-15 21:59 33.63712 -78.87806 2206 ft 251 kts 57°
2026-04-15 22:00 33.65018 -78.86345 2573 ft 267 kts 30°
2026-04-15 22:00 33.66629 -78.85164 3223 ft 275 kts 31°
2026-04-15 22:00 33.68257 -78.83901 3913 ft 281 kts 33°
2026-04-15 22:00 33.69880 -78.82582 4752 ft 281 kts 34°
2026-04-15 22:01 33.71469 -78.81244 5505 ft 284 kts 34°
2026-04-15 22:01 33.73047 -78.79888 6341 ft 284 kts 33°
2026-04-15 22:01 33.74646 -78.78489 7092 ft 285 kts 34°
2026-04-15 22:01 33.76250 -78.77076 7835 ft 286 kts 34°
2026-04-15 22:02 33.77857 -78.75650 8560 ft 288 kts 33°
2026-04-15 22:02 33.79474 -78.74215 9312 ft 290 kts 33°
2026-04-15 22:02 33.81099 -78.72770 10077 ft 292 kts 34°
2026-04-15 22:02 33.82610 -78.71050 10451 ft 311 kts 46°
2026-04-15 22:03 33.84032 -78.68968 10615 ft 334 kts 50°
2026-04-15 22:03 33.85495 -78.66689 10778 ft 354 kts 49°
2026-04-15 22:03 33.87007 -78.64313 10921 ft 371 kts 51°
2026-04-15 22:03 33.88630 -78.61786 11303 ft 380 kts 50°
2026-04-15 22:04 33.90258 -78.59272 11875 ft 382 kts 49°